{"data":{"norad_id":68569,"intl_designator":"2026-070AD","name":"STARLINK-37256","alt_names":[],"object_type":"PAYLOAD","status":"ACTIVE","operator":null,"country":"US","launch_date":"2026-04-02","launch_site_code":"AFETR","launch_vehicle":null,"mission":null,"orbit_class":"UNKNOWN","rcs_meters":null,"size_class":null,"mass_kg":null,"dimensions":null,"purposes":["comms"],"wikipedia_slug":null,"has_3d_model":false,"image_url":null,"decayed_at":null,"tle_current":{"epoch":"2026-09-20T02:48:36.679680Z","epoch_age_seconds":78040,"freshness":"FRESH","line1":"1 68569U 26070AD  26263.11709120  .00025985  00000+0  77753-3 0  9999","line2":"2 68569  53.1573 175.1559 0000940  73.3727 286.7379 15.34399770 26384","mean_motion":15.3439977,"eccentricity":9.4e-5,"inclination_deg":53.1573,"raan_deg":175.1559,"arg_perigee_deg":73.3727,"mean_anomaly_deg":286.7379,"bstar":0.00077753,"rev_number":2638,"period_min":93.847772148715,"perigee_km":462.06088476882,"apogee_km":463.3469628625,"semimajor_km":6840.8409238157,"source":"CELESTRAK","updated_at":"2026-09-20T09:00:43.940083Z"}}}